This is the latest recevied weather packets stored in our database for station/object NR0A-4. If no packets are shown the sender has not sent any weather packets the latest 10 day(s).
| Time | Temp. | Humidity | Pressure | Rain* | Wind** | Luminosity | Snow |
|---|---|---|---|---|---|---|---|
| 1777730704 | 8.33° C | 57% | 1020.6 hPa | 0 mm | - | 427 W/m² | - |
| 1777730404 | 7.78° C | 58% | 1020.6 hPa | 0 mm | - | 411 W/m² | - |
| 1777730104 | 7.22° C | 59% | 1020.6 hPa | 0 mm | - | 394 W/m² | - |
| 1777729805 | 6.67° C | 60% | 1020.6 hPa | 0 mm | - | 380 W/m² | - |
| 1777729504 | 6.11° C | 61% | 1020.6 hPa | 0 mm | - | 360 W/m² | - |
| 1777729204 | 5.56° C | 63% | 1020.5 hPa | 0 mm | - | 336 W/m² | - |
| 1777728904 | 5.56° C | 65% | 1020.6 hPa | 0 mm | - | 283 W/m² | - |
| 1777728605 | 5° C | 67% | 1020.6 hPa | 0 mm | - | 243 W/m² | - |
| 1777728305 | 4.44° C | 69% | 1020.7 hPa | 0 mm | - | 262 W/m² | - |
| 1777728005 | 3.89° C | 74% | 1020.7 hPa | 0 mm | - | 213 W/m² | - |
| 1777727704 | 3.33° C | 74% | 1020.7 hPa | 0 mm | - | 209 W/m² | - |
| 1777727404 | 2.78° C | 74% | 1020.7 hPa | 0 mm | - | 179 W/m² | - |
| 1777727104 | 2.22° C | 74% | 1020.6 hPa | 0 mm | - | 225 W/m² | - |
| 1777726804 | 1.67° C | 75% | 1020.6 hPa | 0 mm | - | 218 W/m² | - |
| 1777726505 | 1.67° C | 76% | 1020.7 hPa | 0 mm | - | 53 W/m² | - |
| 1777726204 | 1.11° C | 76% | 1020.6 hPa | 0 mm | - | 47 W/m² | - |
| 1777725905 | 1.11° C | 76% | 1020.7 hPa | 0 mm | - | 32 W/m² | - |
| 1777725604 | 1.11° C | 77% | 1020.6 hPa | 0 mm | - | 30 W/m² | - |
| 1777725304 | 0.56° C | 77% | 1020.6 hPa | 0 mm | - | 28 W/m² | - |
| 1777725004 | 0.56° C | 77% | 1020.7 hPa | 0 mm | - | 28 W/m² | - |
| 1777724704 | 0.56° C | 78% | 1020.6 hPa | 0 mm | - | 26 W/m² | - |
| 1777724404 | 0° C | 78% | 1020.6 hPa | 0 mm | - | 25 W/m² | - |
| 1777724105 | 0° C | 79% | 1020.6 hPa | 0 mm | - | 23 W/m² | - |
| 1777723804 | -0.56° C | 80% | 1020.7 hPa | 0 mm | - | 21 W/m² | - |
| 1777723504 | -0.56° C | 81% | 1020.6 hPa | 0 mm | - | 19 W/m² | - |
* Rain latest hour (hover to see other rain measurements)
** Current wind speed in m/s (hover to see current wind gust speed)